TimeEST,TemperatureF,Dew PointF,Humidity,Sea Level PressureIn,VisibilityMPH,Wind Direction,Wind SpeedMPH,Gust SpeedMPH,PrecipitationIn,Events,Conditions,WindDirDegrees,DateUTC
12:15 AM,48.2,35.6,62,30.14,10.0,NNE,9.2,-,N/A,,Clear,20,2012-12-12 05:15:00
12:35 AM,46.4,33.8,62,30.13,10.0,NNE,6.9,-,N/A,,Clear,30,2012-12-12 05:35:00
12:55 AM,46.4,33.8,62,30.13,10.0,NNE,8.1,-,N/A,,Clear,20,2012-12-12 05:55:00
1:15 AM,46.4,33.8,62,30.13,10.0,North,6.9,-,N/A,,Partly Cloudy,10,2012-12-12 06:15:00
1:35 AM,46.4,33.8,62,30.14,10.0,NNE,5.8,-,N/A,,Mostly Cloudy,30,2012-12-12 06:35:00
1:55 AM,46.4,32.0,57,30.14,10.0,NNE,6.9,-,N/A,,Scattered Clouds,20,2012-12-12 06:55:00
2:15 AM,46.4,32.0,57,30.15,10.0,NNE,6.9,-,N/A,,Partly Cloudy,30,2012-12-12 07:15:00
2:35 AM,46.4,32.0,57,30.15,10.0,NNE,6.9,-,N/A,,Mostly Cloudy,30,2012-12-12 07:35:00
2:55 AM,46.4,32.0,57,30.15,10.0,NNE,5.8,-,N/A,,Mostly Cloudy,30,2012-12-12 07:55:00
3:15 AM,46.4,32.0,57,30.16,10.0,NE,5.8,-,N/A,,Mostly Cloudy,40,2012-12-12 08:15:00
3:35 AM,44.6,32.0,61,30.16,10.0,North,5.8,-,N/A,,Scattered Clouds,10,2012-12-12 08:35:00
3:55 AM,44.6,32.0,61,30.16,10.0,NNE,6.9,-,N/A,,Scattered Clouds,30,2012-12-12 08:55:00
4:15 AM,44.6,32.0,61,30.18,10.0,NNE,5.8,-,N/A,,Partly Cloudy,20,2012-12-12 09:15:00
4:35 AM,44.6,32.0,61,30.17,10.0,NNE,6.9,-,N/A,,Clear,30,2012-12-12 09:35:00
4:55 AM,44.6,32.0,61,30.18,10.0,NNE,4.6,-,N/A,,Clear,30,2012-12-12 09:55:00
5:15 AM,44.6,32.0,61,30.18,10.0,NNE,5.8,-,N/A,Rain,Light Rain,30,2012-12-12 10:15:00
5:35 AM,44.6,32.0,61,30.19,10.0,NNE,5.8,-,N/A,Rain,Light Rain,20,2012-12-12 10:35:00
5:55 AM,44.6,32.0,61,30.18,10.0,NNE,6.9,-,N/A,Rain,Light Rain,30,2012-12-12 10:55:00
6:15 AM,44.6,32.0,61,30.18,10.0,NNE,8.1,-,N/A,Rain,Light Rain,20,2012-12-12 11:15:00
6:35 AM,44.6,32.0,61,30.18,10.0,NE,5.8,-,N/A,Rain,Light Rain,40,2012-12-12 11:35:00
6:55 AM,44.6,32.0,61,30.20,10.0,North,5.8,-,N/A,Rain,Light Rain,10,2012-12-12 11:55:00
7:15 AM,44.6,32.0,61,30.19,10.0,NE,6.9,-,N/A,Rain,Light Rain,40,2012-12-12 12:15:00
7:35 AM,44.6,33.8,66,30.21,10.0,NNE,5.8,-,N/A,Rain,Light Rain,20,2012-12-12 12:35:00
8:15 AM,44.6,33.8,66,30.21,10.0,NE,8.1,-,N/A,Rain,Light Rain,40,2012-12-12 13:15:00
8:35 AM,44.6,33.8,66,30.24,10.0,NE,8.1,-,N/A,Rain,Light Rain,40,2012-12-12 13:35:00
8:55 AM,44.6,33.8,66,30.23,10.0,NE,8.1,16.1,N/A,Rain,Light Rain,40,2012-12-12 13:55:00
9:15 AM,46.4,35.6,66,30.23,10.0,NNE,12.7,16.1,N/A,Rain,Light Rain,30,2012-12-12 14:15:00
9:35 AM,46.4,35.6,66,30.24,10.0,NNE,12.7,16.1,N/A,Rain,Light Rain,20,2012-12-12 14:35:00
9:55 AM,46.4,35.6,66,30.24,10.0,NNE,10.4,16.1,N/A,Rain,Light Rain,20,2012-12-12 14:55:00
10:15 AM,46.4,35.6,66,30.25,10.0,NNE,9.2,-,N/A,Rain,Light Rain,20,2012-12-12 15:15:00
10:35 AM,46.4,35.6,66,30.25,10.0,NE,4.6,-,N/A,Rain,Light Rain,50,2012-12-12 15:35:00
10:55 AM,48.2,37.4,66,30.25,10.0,NE,9.2,19.6,N/A,Rain,Light Rain,40,2012-12-12 15:55:00
11:15 AM,48.2,37.4,66,30.25,10.0,NE,6.9,16.1,N/A,Rain,Light Rain,50,2012-12-12 16:15:00
11:35 AM,48.2,37.4,66,30.27,10.0,NE,5.8,-,N/A,Rain,Light Rain,50,2012-12-12 16:35:00
11:55 AM,48.2,37.4,66,30.25,10.0,NNE,12.7,-,N/A,Rain,Light Rain,30,2012-12-12 16:55:00
12:15 PM,48.2,37.4,66,30.25,10.0,NE,8.1,16.1,N/A,Rain,Light Rain,40,2012-12-12 17:15:00
12:35 PM,48.2,37.4,66,30.24,10.0,NNE,6.9,-,N/A,Rain,Light Rain,30,2012-12-12 17:35:00
12:55 PM,48.2,37.4,66,30.24,10.0,NNE,11.5,-,N/A,Rain,Light Rain,20,2012-12-12 17:55:00
1:15 PM,46.4,39.2,76,30.24,5.0,North,11.5,-,N/A,Rain,Light Rain,10,2012-12-12 18:15:00
1:35 PM,44.6,42.8,93,30.22,5.0,NNE,9.2,-,N/A,Rain,Light Rain,30,2012-12-12 18:35:00
1:55 PM,44.6,42.8,93,30.22,5.0,NNE,5.8,-,N/A,Rain,Light Rain,30,2012-12-12 18:55:00
2:15 PM,44.6,44.6,100,30.21,4.0,NE,3.5,-,N/A,Rain,Light Rain,50,2012-12-12 19:15:00
2:35 PM,42.8,42.8,100,30.21,3.0,NE,4.6,-,N/A,Rain,Light Rain,40,2012-12-12 19:35:00
2:55 PM,42.8,42.8,100,30.24,3.0,NNE,4.6,-,N/A,Rain,Light Rain,20,2012-12-12 19:55:00
3:15 PM,42.8,42.8,100,30.23,2.0,NNE,5.8,-,N/A,Rain,Light Rain,20,2012-12-12 20:15:00
3:35 PM,42.8,42.8,100,30.25,6.0,North,6.9,-,N/A,Rain,Light Rain,10,2012-12-12 20:35:00
3:55 PM,42.8,42.8,100,30.23,5.0,NE,4.6,-,N/A,Rain,Light Rain,50,2012-12-12 20:55:00
4:15 PM,41.0,41.0,100,30.23,3.0,NE,6.9,-,N/A,Rain,Light Rain,50,2012-12-12 21:15:00
4:35 PM,41.0,41.0,100,30.23,7.0,NE,8.1,-,N/A,Rain,Light Rain,40,2012-12-12 21:35:00
4:55 PM,41.0,41.0,100,30.23,9.0,NE,8.1,-,N/A,,Scattered Clouds,40,2012-12-12 21:55:00
5:15 PM,41.0,41.0,100,30.24,7.0,NE,6.9,-,N/A,Rain,Light Rain,50,2012-12-12 22:15:00
5:35 PM,41.0,41.0,100,30.25,9.0,NNE,8.1,-,N/A,Rain,Light Rain,30,2012-12-12 22:35:00
5:55 PM,41.0,41.0,100,30.26,10.0,NNE,6.9,-,N/A,,Overcast,30,2012-12-12 22:55:00
6:15 PM,41.0,41.0,100,30.27,8.0,NE,5.8,-,N/A,Rain,Light Rain,40,2012-12-12 23:15:00
6:35 PM,41.0,41.0,100,30.27,4.0,NNE,5.8,-,N/A,Rain,Light Rain,30,2012-12-12 23:35:00
7:15 PM,41.0,41.0,100,30.25,4.0,ENE,4.6,-,N/A,Rain,Light Rain,60,2012-12-13 00:15:00
7:35 PM,41.0,41.0,100,30.27,5.0,North,9.2,-,N/A,Rain,Light Rain,10,2012-12-13 00:35:00
7:55 PM,41.0,41.0,100,30.28,5.0,North,9.2,-,N/A,Rain,Light Rain,10,2012-12-13 00:55:00
8:15 PM,41.0,41.0,100,30.27,9.0,NE,10.4,17.3,N/A,Rain,Light Rain,40,2012-12-13 01:15:00
8:35 PM,41.0,41.0,100,30.27,10.0,NE,9.2,-,N/A,Rain,Light Rain,40,2012-12-13 01:35:00
8:55 PM,41.0,41.0,100,30.27,10.0,NE,9.2,-,N/A,Rain,Light Rain,40,2012-12-13 01:55:00
9:15 PM,39.2,39.2,100,30.26,10.0,NE,8.1,-,N/A,Rain,Light Rain,50,2012-12-13 02:15:00
9:35 PM,39.2,39.2,100,30.26,5.0,NE,9.2,16.1,N/A,Rain,Light Rain,50,2012-12-13 02:35:00
9:55 PM,39.2,39.2,100,30.25,7.0,NNE,11.5,17.3,N/A,Rain,Light Rain,30,2012-12-13 02:55:00
10:15 PM,39.2,39.2,100,30.27,9.0,NNE,6.9,-,N/A,,Mostly Cloudy,30,2012-12-13 03:15:00
10:35 PM,41.0,41.0,100,30.27,10.0,NNE,11.5,-,N/A,,Overcast,30,2012-12-13 03:35:00
10:55 PM,39.2,39.2,100,30.26,6.0,NNE,15.0,19.6,N/A,Rain,Light Rain,30,2012-12-13 03:55:00
11:15 PM,39.2,39.2,100,30.27,3.0,NE,11.5,20.7,N/A,Rain,Light Rain,40,2012-12-13 04:15:00
11:35 PM,39.2,39.2,100,30.29,3.0,NE,9.2,17.3,N/A,Rain,Light Rain,40,2012-12-13 04:35:00
11:55 PM,39.2,39.2,100,30.31,2.5,North,8.1,-,N/A,Rain,Light Rain,10,2012-12-13 04:55:00